Showing default

FLOCK 4G 17, 62681

Orbit data source: Space-Track

FLOCK 4G 17, 62681 is a payload satellite owned by Planet (US) in SSO that was launched on Tue, 14 Jan 2025 UTC via an FALCON 9 launch vehicle from the Air Force Western Test Range (AFWTR). Payload-class satellites include a variety of spacecraft equipped with specific instruments for various scientific and technological missions. These include communications satellites like Starlink; space stations such as the ISS; scientific satellites like the Hubble; Earth observation satellites from companies like Planet Labs, Umbra, and HawkEye 360; GPS; miniature CubeSats for education and research; and military/defense satellites.

Loading next visibility...
Identifier
62681, 2025-009CA
Orbit
SSO
Country
Flag of USUS
Related business
Manufacturer
Planet
Mission
Operational Commercial Imaging
Bus & Motor
CUBESAT 3U, Unknown motor
Mass
5.7 kg wet, 5.7 kg dry
Launch date (UTC)
2025-01-14 (1 year ago)
Launch vehicle
FALCON 9
Launch site
Air Force Western Test Range (AFWTR)
Object type
Payload
Rocket body
Debris
Shape & HBR
Box + 2 Pan, 1.0 m
Radar Cross Section
0.072 m², Medium (>0.1 m² and < 1m²)

Expand to show TLE details & history
Last TLE update: 13 hours ago

TLE from 13 hours ago
0 FLOCK 4G 17
1 62681U 25009CA  26124.81121583  .00011123  00000-0  40112-3 0  9992
2 62681  97.3927 206.4579 0006142 123.1966 236.9864 15.28682457129925
Epoch: 2026-05-04T19:28Z
TLE epoch observation values (Epoch: 2026-05-04T19:28:09.047Z)
Latitude
Longitude
51.72515°
Altitude
485.15 km
Speed
7.621 km/s
True Right ascension
13h 45m 49s
True Declination
0° 00' 00"
Sunlit
Object was in full shadow at epoch
Visualization orbit readout
Latitude
Unknown
Longitude
Unknown
Altitude
Unknown
Speed
Unknown
Apparent Right ascension
Unknown
Apparent Declination
Unknown
Sunlit
N/A
Visualization observer readout
Local Sidereal Time
16:46:10
Azimuth
Unknown
Elevation
Unknown
Doppler factor
Unknown
Orbital elements
Apogee altitude
480.914 km
Perigee altitude
472.493 km
Semi-major axis
6,854.841 km
Eccentricity
0.00061
Inclination
97.3927°
RAAN
206.4579°
Arg. of periapsis
123.1966°
True anomaly
236.92741°
Mean anomaly
236.9864°
Eccentric anomaly
236.9569°
Mean motion
3.82426 °/min
Orbital period
94.14 mins
BSTAR
0.00040112
Loading maneuver chart data...
Computing Atmospheric mass density...
Loading historical data...
Loading historical data...
Loading historical data...
Loading historical data...
Loading historical data...
Loading historical data...
Loading historical data...

Documentation

Showing up to 5 results
|